Location: Ústí nad Labem
(50.6611°N, 14.0531°E)
Time: 19:02:29
(UTC+02:00)

S-56A Canister/Altair - Pass Details

Date: 30 April 2025
Orbit: 633 x 2485 km, 38.9° (Epoch: 12 May)

Event Time Altitude Azimuth Distance (km) Brightness Sun altitude
Rises 21:14:06 0° 229° (SW) 3,074 10.8 -7.8°
Reaches altitude 10° 21:16:37 10° 214° (SW) 2,290 10.0 -8.1°
Maximum altitude 21:20:50 24° 161° (SSE) 1,778 8.9 -8.6°
Drops below altitude 10° 21:26:13 10° 111° (ESE) 3,017 10.0 -9.3°
Enters shadow 21:26:25 - 110° (ESE) 3,080 10.0 -9.3°
